Lid_Strength_Index
-2 -2 -1 -1 -2 -2 -1 -1 -1 -1 -1 -1 -2 -1 -1 -1 -1 -1 -2 -3 -2 -1 -1 -1 -1 -1 -2 -2 -2 -2 -2 -2 -2 -2 -2 -2 -2 -2 -2 -2 -2 -2 -1
-2 -2 -2 -1 -1 -2 -1 -1 -1 -1 -1 -1 -1 -1 -1 -1 -1 -2 -2 -2 -2 -1 -1 -1 -1 -2 -2 -3 -2 -2 -2 -2 -2 -2 -2 -2 -2 -2 -2 -2 -2 -2 -2
-2 -2 -2 -2 -1 -2 -2 -2 -2 -1 -1 -1 -1 -1 -1 -1 -1 -1 -2 -2 -2 -2 -1 -1 -1 -1 -1 -1 -1 -2 -2 -2 -2 -2 -2 -2 -2 -2 -2 -2 -2 -2 -2
-2 -2 -2 -2 -1 -2 -2 -2 -1 -0 -0 0 -0 -0 -1 -1 -1 -1 -2 -2 -2 -2 -1 -2 -2 -2 -2 -2 -2 -2 -2 -2 -2 -2 -2 -2 -2 -2 -2 -2 -2 -2 -2
-2 -1 -1 -2 -2 -2 -2 -1 -0 -0 1 0 0 -0 -1 -1 -1 -1 -2 -2 -2 -2 -2 -1 -2 -2 -2 -2 -1 -2 -1 -2 -2 -2 -2 -2 -2 -2 -2 -2 -2 -2 -2
-2 -1 -2 -2 -1 -1 -1 -1 -0 -0 -0 0 0 0 -0 -1 -1 -1 -1 -1 -1 -1 -1 -1 -2 -2 -2 -1 -1 -1 -2 -2 -2 -2 -2 -2 -2 -2 -2 -2 -2 -2 -2
-2 -2 -1 -1 -1 -1 -1 -1 -1 -0 0 -0 1 1 0 -1 -0 -1 -1 -1 -1 -1 -1 0 -0 -1 -2 -2 -1 -2 -2 -2 -2 -2 -2 -1 -1 -1 -2 -2 -2 -2 -2
-2 -1 -1 -1 -1 -0 -1 -1 -0 1 0 -1 2 2 3 2 0 -0 -0 -0 0 0 0 0 -0 -1 -2 -2 -2 -1 -1 -2 -2 -2 -2 -2 -2 -2 -1 -1 -2 -2 -2
-2 -2 -2 -1 -1 -1 0 -0 -0 0 1 -0 0 2 3 4 3 -0 -0 -0 -0 0 -1 -1 -1 -2 -2 -2 -2 -3 -2 -1 -2 -2 -2 -2 -2 -2 -2 -2 -1 -2 -2
-1 -2 -2 -2 -1 -1 -0 -0 -0 -0 -0 1 0 -0 0 1 4 4 0 0 -0 -0 -1 -1 -1 -2 -2 -2 -2 -3 -1 -2 -2 -2 -2 -2 -2 -2 -2 -2 -2 -2 -2
-1 -1 -2 -1 -1 -1 -1 -1 -1 -0 -0 1 1 1 1 1 1 3 5 3 1 0 -1 -1 -1 -1 -2 -2 -2 -3 -2 -2 -2 -2 -2 -2 -2 -2 -2 -2 -2 -2 -2
-0 -1 -1 -1 -1 -1 -0 -0 -1 -1 -0 0 1 1 1 2 2 3 4 3 3 1 -1 -1 -1 -1 -1 -2 -2 -3 -2 -2 -3 -2 -2 -2 -2 -2 -2 -2 -2 -2 -2
0 -1 -1 -1 -1 -1 -1 -1 -0 -0 -0 1 1 1 0 1 1 1 2 3 3 2 1 -1 -1 -1 -1 -2 -2 -2 -1 -2 -2 -2 -2 -2 -2 -2 -2 -2 -2 -2 -2
-0 -1 -1 -1 -1 -1 -1 -0 -0 -0 -0 1 1 0 1 0 0 0 2 3 4 3 1 1 -1 -1 -1 -2 -2 -2 -1 -3 -3 -2 -2 -2 -2 -2 -2 -1 -1 -1 -1
-0 -1 -1 -1 -1 -1 -1 -0 0 0 -0 1 1 0 0 0 -0 -0 0 1 3 4 3 1 1 -1 -1 -2 -1 -1 -2 -2 -2 -2 -2 -2 -1 -1 -1 0 1 1 1
-1 -1 -1 -1 -1 -1 -1 -0 0 -0 0 1 0 0 0 -0 -0 -1 0 0 1 2 4 1 1 -0 -1 -1 -1 -2 -2 -2 -2 -2 -2 -1 -0 1 1 1 1 2 1
-0 -0 -0 -0 -0 -0 -0 0 0 0 1 1 0 0 0 -0 -0 -0 0 0 1 1 3 1 0 -1 -1 -1 -1 -2 -2 -2 -1 -2 -2 0 1 2 1 1 2 2 2
-0 -0 -0 -0 -0 -0 -0 0 1 0 1 1 0 1 1 0 0 -0 0 -0 0 0 2 2 1 0 -1 -1 -1 -1 -1 -1 -1 -1 1 3 2 2 3 3 3 3 2
-0 -0 -0 -0 -0 -0 0 0 2 0 0 0 0 0 0 0 0 -0 0 0 0 0 0 1 1 0 -0 -0 0 -1 -1 -1 -0 1 2 3 3 3 3 3 3 4 4
0 0 -0 -0 0 0 -0 -0 0 -0 -0 -0 0 -0 -0 -0 -0 -1 -0 0 0 1 0 1 1 1 1 -1 1 2 2 1 1 3 3 4 4 3 3 3 3 3 4
-0 -0 0 0 0 0 0 -0 -0 0 0 1 0 -0 -0 1 3 2 0 0 -0 0 2 2 2 2 2 2 2 2 2 2 3 3 5 5 4 4 4 4 3 3 3
0 0 0 0 1 0 5 4 1 0 1 1 0 -0 0 2 3 3 3 2 2 1 1 2 2 2 2 2 2 3 2 3 6 3 5 6 5 6 5 4 4 4 4
0 1 1 0 1 0 7 6 3 0 0 0 0 0 0 1 -0 0 3 3 3 3 3 1 1 2 2 1 1 1 1 2 5 4 5 7 5 6 5 5 4 4 3
1 1 1 0 1 2 7 6 4 -0 0 -0 -0 -0 -0 -1 1 1 1 1 1 0 1 2 1 1 1 1 2 0 1 1 3 3 5 8 6 7 6 6 5 5 4
1 1 1 1 1 2 7 6 2 0 0 0 -0 -1 -1 1 5 4 1 1 1 1 2 2 2 2 2 2 2 0 1 4 6 5 6 7 8 8 6 8 7 6 5
1 1 2 1 4 2 8 7 2 0 1 1 -0 1 3 3 5 4 0 1 2 1 1 0 0 1 0 -0 -1 -1 1 4 6 7 6 7 8 8 8 8 8 8 7